Weather History for KTVR - October, 2014

Change the Weather History Date:

Monday, October 13, 2014

  Actual Average Record
Temperature  
Mean Temperature 74 °F 67 °F  
Max Temperature 87 °F 80 °F 94 °F (1963)
Min Temperature 61 °F 54 °F 33 °F (1977)
Degree Days  
Heating Degree Days 0 2  
Month to date heating degree days 8 19  
Since 1 July heating degree days 8 24  
Cooling Degree Days 9 4  
Month to date cooling degree days 122 64  
Year to date cooling degree days 2166 2161  
Growing Degree Days 23 (Base 50)    
Moisture  
Dew Point 66 °F    
Average Humidity 77    
Maximum Humidity 93    
Minimum Humidity 61    
Precipitation  
Precipitation 2.19 in 0.17 in 2.38 in (1970)
Month to date precipitation 4.55 1.86  
Year to date precipitation 49.79 41.32  
Sea Level Pressure  
Sea Level Pressure 29.81 in    
Wind  
Wind Speed 12 mph (South)    
Max Wind Speed 33 mph    
Max Gust Speed 43 mph    
Visibility 10 miles    
Events Rain    
T = Trace of Precipitation, MM = Missing Value Source: NWS Daily Summary

Daily Weather History Graph

Daily Weather History Graph

Search for Another Location

Airport or City:

Trip Planner

Search our weather history database for the weather conditions in past years. The results will help you decide how hot, cold, wet, or windy it might be!

Date:

Astronomy

Oct. 13, 2014 Rise Set
Actual Time 7:06 AM CDT 6:33 PM CDT
Civil Twilight 6:41 AM CDT 6:58 PM CDT
Nautical Twilight 6:13 AM CDT 7:26 PM CDT
Astronomical Twilight 5:44 AM CDT 7:55 PM CDT
Moon 10:55 PM CDT (10/13) 12:10 PM CDT (10/13)
Length of Visible Light 12h 16m
Length of Day
11h 27m
Waning Gibbous, 70% of the Moon is Illuminated
Oct 13
Waning Gibbous
Oct 15
Last Quarter
Oct 23
New
Oct 30
First Quarter
Nov 6
Full

Hourly Weather History & Observations

Time (CDT) Temp. Heat Index Dew Point Humidity Pressure Visibility Wind Dir Wind Speed Gust Speed Precip Events Conditions
12:53 AM 73.0 °F - 69.1 °F 87% 29.92 in 10.0 mi SSE 9.2 mph - N/A   Clear
1:53 AM 73.0 °F - 69.1 °F 87% 29.91 in 10.0 mi SSE 10.4 mph - N/A   Clear
2:53 AM 73.0 °F - 70.0 °F 90% 29.88 in 10.0 mi SSE 12.7 mph - N/A   Clear
3:29 AM 73.9 °F - 71.1 °F 91% 29.85 in 10.0 mi SSE 12.7 mph - N/A   Mostly Cloudy
3:53 AM 73.9 °F - 71.1 °F 91% 29.86 in 10.0 mi SSE 11.5 mph - N/A   Overcast
4:53 AM 75.0 °F - 71.1 °F 87% 29.83 in 10.0 mi South 17.3 mph - N/A   Overcast
5:53 AM 75.0 °F - 71.1 °F 87% 29.83 in 10.0 mi SSE 13.8 mph - N/A   Overcast
6:32 AM 75.0 °F - 71.1 °F 87% 29.81 in 10.0 mi South 15.0 mph - N/A   Scattered Clouds
6:42 AM 75.0 °F - 71.1 °F 87% 29.81 in 10.0 mi South 16.1 mph - N/A   Mostly Cloudy
6:53 AM 75.0 °F - 71.1 °F 87% 29.83 in 10.0 mi SSE 15.0 mph - N/A   Scattered Clouds
7:53 AM 75.9 °F - 71.1 °F 85% 29.81 in 10.0 mi SSE 16.1 mph - N/A   Partly Cloudy
8:16 AM 77.0 °F - 71.1 °F 82% 29.80 in 10.0 mi South 16.1 mph - N/A   Mostly Cloudy
8:53 AM 78.1 °F - 71.1 °F 79% 29.84 in 10.0 mi South 18.4 mph 25.3 mph N/A   Mostly Cloudy
9:53 AM 80.1 °F 83.8 °F 72.0 °F 76% 29.83 in 10.0 mi South 19.6 mph 28.8 mph N/A   Scattered Clouds
10:53 AM 82.9 °F 88.0 °F 72.0 °F 69% 29.80 in 10.0 mi South 21.9 mph 29.9 mph N/A   Overcast
11:53 AM 84.0 °F 88.4 °F 70.0 °F 63% 29.77 in 10.0 mi South 24.2 mph 32.2 mph N/A   Overcast
12:53 PM 84.0 °F 87.8 °F 69.1 °F 61% 29.72 in 10.0 mi South 27.6 mph 38.0 mph N/A   Scattered Clouds
1:27 PM 68.0 °F - 64.0 °F 87% 29.77 in 10.0 mi WNW 10.4 mph 31.1 mph 0.03 in Rain Light Rain
1:41 PM 66.9 °F - 64.0 °F 90% 29.77 in 10.0 mi WNW 11.5 mph 23.0 mph 0.04 in Rain Light Rain
1:53 PM 64.9 °F - 63.0 °F 93% 29.77 in 10.0 mi NW 16.1 mph 21.9 mph 0.44 in Rain Heavy Rain
2:53 PM 64.0 °F - 62.1 °F 93% 29.80 in 10.0 mi Variable 4.6 mph - 1.04 in Rain Heavy Rain
3:12 PM 64.9 °F - 63.0 °F 93% 29.77 in 10.0 mi NNE 3.5 mph - 0.06 in Rain Heavy Rain
3:53 PM 64.9 °F - 63.0 °F 93% 29.82 in 10.0 mi Calm Calm - 0.28 in Rain Heavy Rain
4:13 PM 64.0 °F - 63.0 °F 96% 29.78 in 10.0 mi WNW 3.5 mph - 0.06 in Rain Heavy Rain
4:53 PM 64.0 °F - 62.1 °F 93% 29.79 in 10.0 mi SE 4.6 mph - 0.17 in Rain Heavy Rain
5:42 PM 64.0 °F - 62.1 °F 93% 29.74 in 10.0 mi SSE 6.9 mph - 0.07 in Rain Heavy Rain
5:53 PM 64.0 °F - 62.1 °F 93% 29.77 in 10.0 mi South 9.2 mph - 0.15 in Rain Heavy Rain
6:53 PM 64.0 °F - 62.1 °F 93% 29.75 in 10.0 mi South 10.4 mph - 0.06 in   Mostly Cloudy
7:53 PM 63.0 °F - 60.1 °F 90% 29.76 in 10.0 mi South 9.2 mph - 0.02 in Rain Light Rain
8:53 PM 63.0 °F - 60.1 °F 90% 29.80 in 10.0 mi South 8.1 mph - 0.02 in Rain Light Rain
9:15 PM 62.1 °F - 60.1 °F 93% 29.77 in 10.0 mi Variable 5.8 mph - 0.00 in Rain Light Rain
9:53 PM 62.1 °F - 60.1 °F 93% 29.79 in 10.0 mi Variable 4.6 mph - 0.00 in Rain Light Rain
10:53 PM 62.1 °F - 59.0 °F 90% 29.82 in 10.0 mi West 5.8 mph - 0.00 in Rain Light Rain
11:32 PM 62.1 °F - 59.0 °F 90% 29.82 in 10.0 mi WSW 4.6 mph - 0.00 in   Overcast
11:53 PM 61.0 °F - 57.9 °F 90% 29.83 in 10.0 mi Variable 6.9 mph - 0.01 in Rain Light Rain